Starlink 11603

operational
NORAD ID: 63671 Int'l Des: 2025-085 Owner: SPXS Country: US Constellation: starlink
LEOCIRCULAR

About Starlink 11603

Description loading...

Live Position

Loading 3D Globe...

Upcoming Passes

Altitude History

Altitude vs Time

uPlot chart will show altitude changes over time

Two-Line Element Set

1 63671U 25085H 26036.21688019 .00386476 00000-0 28504-2 0 9990
2 63671 42.9979 114.2465 0001566 175.0046 185.0837 15.71065857 45139
Epoch: Feb 5, 2026 • Age: 6 hours

Current Status

Altitude 358.9 km
Velocity 7.69 km/s
Sub-Earth Point -14.10°S, 153.28°E
Launch Date Apr 28, 2025
Age 0.7 years
Type internet

Technical Details

Classification Payload
Mass 960.00 kg
Dry Mass 910.00 kg
Total Mass 960.00 kg
Length 0.30 m
Diameter 4.10 m
Span 29.00 m
Shape Box + pan
Manufacturer SPXS
Bus Type Starlink V2MD
Phase Status In Orbit
Owner/State SPXS/US

Large Constellations

Loading constellations...